When you browse on this site, cookies collect data to enhance your experience and personalize the content and advertising you see.
Visit our Privacy Policy to learn more. By continuing to use the site, you agree to this use of cookies and data.
  • In Netherlands
  • List of Countries
  • For 7 days
  • Water Temperature
  • Satellite Maps
  • Weather Map
  • Weather Widgets
  • user-avatar
    Login

    Hourly Weather Krzyszkowo

    Today, 11 December, Tuesday

    Time Temperature Precipitation Wind Pressure Humidity
    00:00 +1°C° 0.1 mm 5 mps 747 mmHg 81%
    01:00 +1°C° 0 mm 4 mps 747 mmHg 84%
    02:00 +1°C° 0.3 mm 4 mps 747 mmHg 84%
    03:00 +1°C° 0.3 mm 4 mps 747 mmHg 84%
    04:00 +1°C° 0.3 mm 5 mps 747 mmHg 84%
    05:00 +1°C° 0.4 mm 5 mps 747 mmHg 84%
    06:00 +1°C° 0.4 mm 5 mps 747 mmHg 84%
    07:00 0°C° 0 mm 4 mps 747 mmHg 86%
    08:00 +1°C° 0.2 mm 4 mps 747 mmHg 86%
    09:00 +1°C° 0.2 mm 4 mps 748 mmHg 86%
    10:00 +1°C° 0.2 mm 4 mps 748 mmHg 86%
    11:00 +1°C° 0.2 mm 4 mps 749 mmHg 84%
    12:00 +1°C° 0.2 mm 4 mps 749 mmHg 83%
    13:00 +3°C° 0.2 mm 4 mps 750 mmHg 82%
    14:00 +1°C° 0.1 mm 4 mps 750 mmHg 83%
    15:00 +1°C° 0.1 mm 4 mps 751 mmHg 85%
    16:00 +2°C° 0.1 mm 3 mps 751 mmHg 86%
    17:00 +1°C° 0 mm 3 mps 751 mmHg 88%
    18:00 +1°C° 0 mm 3 mps 752 mmHg 89%
    19:00 0°C° 0 mm 3 mps 752 mmHg 91%
    20:00 +1°C° 0 mm 2 mps 753 mmHg 92%
    21:00 +1°C° 0 mm 2 mps 753 mmHg 93%
    22:00 +1°C° 0 mm 2 mps 754 mmHg 94%
    23:00 +1°C° 0 mm 2 mps 754 mmHg 94%

    Tomorrow, 12 December, Wednesday

    Time Temperature Precipitation Wind Pressure Humidity
    00:00 +1°C° 0 mm 2 mps 755 mmHg 94%
    01:00 +1°C° 0 mm 2 mps 755 mmHg 95%
    02:00 -1°C° 0 mm 2 mps 756 mmHg 94%
    03:00 -1°C° 0 mm 3 mps 756 mmHg 93%
    04:00 -1°C° 0 mm 3 mps 756 mmHg 92%
    05:00 -1°C° 0 mm 3 mps 757 mmHg 92%
    06:00 -2°C° 0 mm 2 mps 757 mmHg 92%
    07:00 -2°C° 0 mm 2 mps 758 mmHg 92%
    08:00 -1°C° 0 mm 2 mps 758 mmHg 91%
    09:00 -1°C° 0 mm 2 mps 759 mmHg 89%
    10:00 +1°C° 0 mm 2 mps 759 mmHg 87%
    11:00 +1°C° 0 mm 2 mps 759 mmHg 85%
    12:00 +2°C° 0 mm 2 mps 759 mmHg 83%
    13:00 +2°C° 0 mm 2 mps 760 mmHg 81%
    14:00 +1°C° 0 mm 2 mps 760 mmHg 84%
    15:00 +1°C° 0 mm 2 mps 760 mmHg 87%
    16:00 -1°C° 0 mm 2 mps 760 mmHg 90%
    17:00 -1°C° 0 mm 2 mps 760 mmHg 91%
    18:00 -1°C° 0 mm 2 mps 760 mmHg 92%
    19:00 -1°C° 0 mm 2 mps 760 mmHg 93%
    20:00 -1°C° 0 mm 2 mps 761 mmHg 93%
    21:00 -1°C° 0 mm 2 mps 761 mmHg 93%
    22:00 -2°C° 0 mm 2 mps 761 mmHg 94%
    23:00 -2°C° 0 mm 2 mps 761 mmHg 94%

    Day after tomorrow, 13 December, Thursday

    Time Temperature Precipitation Wind Pressure Humidity
    00:00 -2°C° 0 mm 2 mps 761 mmHg 94%
    01:00 -2°C° 0 mm 2 mps 761 mmHg 95%
    02:00 -2°C° 0 mm 2 mps 761 mmHg 94%
    03:00 -2°C° 0 mm 2 mps 761 mmHg 94%
    04:00 -2°C° 0 mm 2 mps 761 mmHg 94%
    05:00 -2°C° 0 mm 2 mps 760 mmHg 94%
    06:00 -2°C° 0 mm 2 mps 760 mmHg 94%
    07:00 -2°C° 0 mm 2 mps 760 mmHg 94%
    08:00 -2°C° 0 mm 2 mps 760 mmHg 92%
    09:00 -2°C° 0 mm 3 mps 760 mmHg 90%
    10:00 -1°C° 0 mm 3 mps 760 mmHg 88%
    11:00 -1°C° 0 mm 2 mps 760 mmHg 86%
    12:00 -1°C° 0 mm 2 mps 760 mmHg 84%
    13:00 -1°C° 0 mm 2 mps 760 mmHg 82%
    14:00 -1°C° 0 mm 2 mps 760 mmHg 84%
    15:00 -1°C° 0 mm 2 mps 760 mmHg 86%
    16:00 -2°C° 0 mm 2 mps 760 mmHg 88%
    17:00 -2°C° 0 mm 2 mps 760 mmHg 89%
    18:00 -2°C° 0 mm 2 mps 760 mmHg 90%
    19:00 -2°C° 0 mm 2 mps 760 mmHg 91%
    20:00 -2°C° 0 mm 2 mps 760 mmHg 91%
    21:00 -2°C° 0 mm 2 mps 761 mmHg 91%
    22:00 -3°C° 0 mm 2 mps 761 mmHg 91%
    23:00 -3°C° 0 mm 2 mps 761 mmHg 91%

    14 December, Friday

    Time Temperature Precipitation Wind Pressure Humidity
    00:00 -2°C° 0 mm 2 mps 761 mmHg 90%
    01:00 -2°C° 0 mm 2 mps 761 mmHg 89%
    02:00 -2°C° 0 mm 2 mps 761 mmHg 89%
    03:00 -2°C° 0 mm 2 mps 761 mmHg 88%
    04:00 -2°C° 0 mm 2 mps 761 mmHg 88%
    05:00 -2°C° 0 mm 2 mps 761 mmHg 88%
    06:00 -2°C° 0 mm 2 mps 761 mmHg 88%
    07:00 -4°C° 0 mm 3 mps 761 mmHg 88%
    08:00 -2°C° 0 mm 3 mps 761 mmHg 87%
    09:00 -2°C° 0 mm 3 mps 762 mmHg 86%
    10:00 -2°C° 0 mm 3 mps 762 mmHg 84%
    11:00 -2°C° 0 mm 3 mps 762 mmHg 82%
    12:00 -2°C° 0 mm 3 mps 762 mmHg 80%
    13:00 -1°C° 0 mm 3 mps 762 mmHg 78%
    14:00 -2°C° 0 mm 2 mps 762 mmHg 80%
    15:00 -2°C° 0 mm 2 mps 762 mmHg 81%
    16:00 -2°C° 0 mm 2 mps 762 mmHg 82%
    17:00 -3°C° 0 mm 2 mps 763 mmHg 83%
    18:00 -3°C° 0 mm 2 mps 763 mmHg 84%
    19:00 -3°C° 0 mm 2 mps 763 mmHg 85%
    20:00 -3°C° 0 mm 2 mps 763 mmHg 86%
    21:00 -3°C° 0 mm 2 mps 763 mmHg 87%
    22:00 -3°C° 0 mm 2 mps 763 mmHg 88%
    23:00 -3°C° 0 mm 2 mps 764 mmHg 89%

    15 December, Saturday

    Time Temperature Precipitation Wind Pressure Humidity
    00:00 -3°C° 0 mm 2 mps 764 mmHg 89%
    01:00 -3°C° 0 mm 2 mps 764 mmHg 90%
    02:00 -3°C° 0 mm 2 mps 764 mmHg 90%
    03:00 -3°C° 0 mm 2 mps 764 mmHg 90%
    04:00 -2°C° 0 mm 2 mps 764 mmHg 90%
    05:00 -2°C° 0 mm 2 mps 764 mmHg 90%
    06:00 -2°C° 0 mm 2 mps 764 mmHg 90%
    07:00 -2°C° 0 mm 2 mps 764 mmHg 89%
    08:00 -2°C° 0 mm 2 mps 765 mmHg 88%
    09:00 -2°C° 0 mm 2 mps 765 mmHg 87%
    10:00 -1°C° 0 mm 2 mps 765 mmHg 85%
    11:00 -1°C° 0 mm 2 mps 765 mmHg 83%
    12:00 -1°C° 0 mm 2 mps 765 mmHg 81%
    13:00 -1°C° 0 mm 2 mps 765 mmHg 79%
    14:00 -1°C° 0 mm 2 mps 765 mmHg 82%
    15:00 -1°C° 0 mm 2 mps 766 mmHg 84%
    16:00 -2°C° 0 mm 2 mps 766 mmHg 86%
    17:00 -2°C° 0 mm 2 mps 766 mmHg 87%
    18:00 -2°C° 0 mm 2 mps 766 mmHg 88%
    19:00 -3°C° 0 mm 2 mps 766 mmHg 88%
    20:00 -3°C° 0 mm 2 mps 766 mmHg 89%
    21:00 -3°C° 0 mm 2 mps 766 mmHg 90%
    22:00 -3°C° 0 mm 2 mps 766 mmHg 90%
    23:00 -3°C° 0 mm 2 mps 766 mmHg 91%

    16 December, Sunday

    Time Temperature Precipitation Wind Pressure Humidity
    00:00 -3°C° 0 mm 2 mps 766 mmHg 91%
    01:00 -1°C° 0 mm 1 mps 766 mmHg 92%
    02:00 -1°C° 0 mm 1 mps 766 mmHg 92%
    03:00 -1°C° 0 mm 1 mps 766 mmHg 92%
    04:00 -2°C° 0 mm 1 mps 766 mmHg 92%
    05:00 -4°C° 0 mm 2 mps 766 mmHg 92%
    06:00 -4°C° 0 mm 2 mps 766 mmHg 92%
    07:00 -4°C° 0 mm 2 mps 766 mmHg 92%
    08:00 -3°C° 0 mm 2 mps 766 mmHg 91%
    09:00 -3°C° 0 mm 2 mps 766 mmHg 89%
    10:00 -4°C° 0 mm 3 mps 765 mmHg 87%
    11:00 -2°C° 0 mm 2 mps 765 mmHg 85%
    12:00 -2°C° 0 mm 2 mps 765 mmHg 82%
    13:00 -1°C° 0 mm 2 mps 765 mmHg 80%
    14:00 -2°C° 0 mm 2 mps 765 mmHg 83%
    15:00 -2°C° 0 mm 3 mps 764 mmHg 85%
    16:00 -4°C° 0 mm 3 mps 764 mmHg 88%
    17:00 -4°C° 0 mm 3 mps 764 mmHg 87%
    18:00 -4°C° 0 mm 4 mps 764 mmHg 86%
    19:00 -4°C° 0 mm 4 mps 763 mmHg 85%
    20:00 -4°C° 0 mm 4 mps 763 mmHg 85%
    21:00 -5°C° 0 mm 5 mps 763 mmHg 85%
    22:00 -5°C° 0 mm 5 mps 762 mmHg 84%
    23:00 -5°C° 0 mm 5 mps 762 mmHg 83%
    Show more